This is the latest recevied weather packets stored in our database for station/object SQ9MHX-13. If no packets are shown the sender has not sent any weather packets the latest 1 day(s).
| Time | Temp. | Humidity | Pressure | Rain* | Wind** | Luminosity | Snow |
|---|---|---|---|---|---|---|---|
| 1778083316 | 23.89° C | 40% | 943.4 hPa | - | 0 m/s | - | - |
| 1778083013 | 23.89° C | 39% | 943.5 hPa | - | 0 m/s | - | - |
| 1778081218 | 23.89° C | 38% | 941.1 hPa | - | 0 m/s | - | - |
| 1778080021 | 25° C | 37% | 941 hPa | - | 0 m/s | - | - |
| 1778079722 | 25° C | 36% | 940.3 hPa | - | 0 m/s | - | - |
| 1778078824 | 26.11° C | 35% | 940.7 hPa | - | 0 m/s | - | - |
| 1778076131 | 27.22° C | 34% | 938.1 hPa | - | 0 m/s | - | - |
| 1778074335 | 26.11° C | 37% | 938 hPa | - | 0 m/s | - | - |
| 1778073736 | 26.11° C | 34% | 937.9 hPa | - | 0 m/s | - | - |
| 1778070743 | 26.11° C | 35% | 939.6 hPa | - | 0 m/s | - | - |
| 1778070144 | 26.11° C | 37% | 939.1 hPa | - | 0 m/s | - | - |
| 1778069246 | 25° C | 38% | 941.3 hPa | - | 0 m/s | - | - |
| 1778068947 | 25° C | 39% | 940.5 hPa | - | 0 m/s | - | - |
| 1778068049 | 25° C | 38% | 941.4 hPa | - | 0 m/s | - | - |
| 1778066852 | 25° C | 38% | 940.6 hPa | - | 0 m/s | - | - |
| 1778066253 | 23.89° C | 38% | 940.8 hPa | - | 0 m/s | - | - |
| 1778065954 | 25° C | 39% | 940.7 hPa | - | 0 m/s | - | - |
| 1778065056 | 23.89° C | 41% | 942.3 hPa | - | 0 m/s | - | - |
| 1778064158 | 23.89° C | 42% | 941.9 hPa | - | 0 m/s | - | - |
| 1778063859 | 23.89° C | 42% | 941.5 hPa | - | 0 m/s | - | - |
| 1778062662 | 23.89° C | 44% | 942.5 hPa | - | 0 m/s | - | - |
| 1778062363 | 23.89° C | 44% | 942.7 hPa | - | 0 m/s | - | - |
| 1778062063 | 23.89° C | 44% | 942.6 hPa | - | 0 m/s | - | - |
| 1778060268 | 22.78° C | 47% | 943.2 hPa | - | 0 m/s | - | - |
| 1778059969 | 22.78° C | 47% | 944 hPa | - | 0 m/s | - | - |
* Rain since midnight (hover to see other rain measurements)
** Current wind speed in m/s (hover to see current wind gust speed)